Powrót do katalogu

ONEWEB-0225

AktywnyŁącznośćPO
NORAD 48799·PAYLOAD·🇬🇧 United Kingdom

Wystrzelony May 28, 2021 z Vostochny Cosmodrome

Loading…

Następne Przeloty (najbliższe 24 godziny)

TLE

ŚwieżeSource: CelesTrak SupGP

Epoka: Sep 14, 2026, 21:17 UTC

1 48799C 21045AJ  26257.88734213  .00003011  00000+0  80069-2 0  2573
2 48799  87.8983 241.3152 0002248  71.8921 312.2244 13.15542936    12

Śledź ONEWEB-0225 w czasie rzeczywistym z AllMySat

Download on the App Store